Ketchikan, AK

9:43 PM AKDT on September 20, 2018 (GMT -0800)
Ketchikan International

Weather History for PAKT - October, 2017

Change the Weather History Date:

Saturday, October 28, 2017

  Actual Average Record
Temperature  
Mean Temperature 48 °F -  
Max Temperature 52 °F 47 °F 59 °F (1958)
Min Temperature 46 °F 36 °F 23 °F (1971)
Degree Days  
Heating Degree Days 16    
Moisture  
Dew Point 44 °F    
Average Humidity 82    
Maximum Humidity 93    
Minimum Humidity 66    
Precipitation  
Precipitation 0.00 in - - ()
Sea Level Pressure  
Sea Level Pressure 30.23 in    
Wind  
Wind Speed 10 mph (NW)    
Max Wind Speed 16 mph    
Max Gust Speed 24 mph    
Visibility 10 miles    
Events      
Averages and records for this station are not official NWS values.
T = Trace of Precipitation, MM = Missing Value Source: NWS Daily Summary

Daily Weather History Graph

Daily Weather History Graph

Search for Another Location

Airport or City:

Astronomy

Oct. 28, 2017 Rise Set
Actual Time 7:44 AM AKDT 5:15 PM AKDT
Civil Twilight 7:05 AM AKDT 5:54 PM AKDT
Nautical Twilight 6:22 AM AKDT 6:37 PM AKDT
Astronomical Twilight 5:40 AM AKDT 7:19 PM AKDT
Moon 3:10 PM AKDT (10/28) No Moon Set
Length of Visible Light 10h 48m
Length of Day
9h 31m
First Quarter, 59% of the Moon is Illuminated
Oct 28
First Quarter
Nov 3
Full
Nov 10
Last Quarter
Nov 18
New
Nov 26
First Quarter

Hourly Weather History & Observations

Time (AKDT) Temp. Windchill Dew Point Humidity Pressure Visibility Wind Dir Wind Speed Gust Speed Precip Events Conditions
12:06 AM 48.9 °F - 46.9 °F 93% 30.21 in 10.0 mi NW 8.1 mph - N/A   Mostly Cloudy
12:53 AM 48.9 °F - 46.9 °F 93% 30.21 in 10.0 mi NW 8.1 mph - N/A   Overcast
1:53 AM 48.9 °F - 46.0 °F 90% 30.22 in 10.0 mi NNW 9.2 mph - N/A   Overcast
2:01 AM 48.9 °F - 46.9 °F 93% 30.21 in 10.0 mi NNW 8.1 mph - N/A   Overcast
2:50 AM 48.2 °F - 46.4 °F 93% 30.21 in 10.0 mi North 9.2 mph - N/A   Overcast
2:53 AM 48.9 °F - 46.9 °F 93% 30.22 in 10.0 mi North 10.4 mph - N/A   Overcast
3:15 AM 48.9 °F - 46.9 °F 93% 30.20 in 10.0 mi North 9.2 mph - N/A   Overcast
3:53 AM 50.0 °F - 46.9 °F 89% 30.21 in 10.0 mi NNW 9.2 mph - N/A   Mostly Cloudy
4:53 AM 50.0 °F - 46.9 °F 89% 30.22 in 10.0 mi NW 10.4 mph - N/A   Overcast
5:53 AM 50.0 °F - 46.9 °F 89% 30.21 in 10.0 mi WNW 11.5 mph - N/A   Overcast
6:00 AM 50.0 °F - 46.4 °F 87% 30.21 in 10.0 mi NW 11.5 mph - N/A   Overcast
6:53 AM 48.2 °F - 46.4 °F 93% 30.21 in 10.0 mi NW 9.2 mph - N/A   Mostly Cloudy
7:53 AM 48.2 °F - 44.6 °F 87% 30.21 in 10.0 mi NW 11.5 mph - N/A   Mostly Cloudy
8:53 AM 48.2 °F - 42.8 °F 82% 30.22 in 10.0 mi NW 13.8 mph - N/A   Scattered Clouds
9:53 AM 48.2 °F - 42.8 °F 82% 30.23 in 10.0 mi NW 11.5 mph 20.7 mph N/A   Partly Cloudy
10:53 AM 50.0 °F - 43.0 °F 77% 30.23 in 10.0 mi NW 11.5 mph 23.0 mph N/A   Partly Cloudy
11:53 AM 50.0 °F - 42.8 °F 76% 30.22 in 10.0 mi NW 12.7 mph - N/A   Partly Cloudy
12:53 PM 51.1 °F - 42.1 °F 71% 30.23 in 10.0 mi WNW 15.0 mph - N/A   Clear
1:53 PM 51.8 °F - 42.8 °F 71% 30.23 in 10.0 mi NW 16.1 mph 24.2 mph N/A   Clear
2:53 PM 51.8 °F - 42.8 °F 71% 30.24 in 10.0 mi WNW 12.7 mph 24.2 mph N/A   Clear
3:53 PM 51.8 °F - 42.8 °F 71% 30.23 in 10.0 mi WNW 9.2 mph 21.9 mph N/A   Clear
4:53 PM 50.0 °F - 42.8 °F 76% 30.24 in 10.0 mi WNW 13.8 mph 21.9 mph N/A   Clear
5:53 PM 50.0 °F - 42.8 °F 76% 30.24 in 10.0 mi NW 11.5 mph - N/A   Clear
6:53 PM 48.2 °F - 42.8 °F 82% 30.25 in 10.0 mi NW 12.7 mph - N/A   Clear
7:53 PM 50.0 °F - 39.2 °F 66% 30.26 in 10.0 mi NW 10.4 mph - N/A   Clear
8:53 PM 48.2 °F - 39.2 °F 71% 30.27 in 10.0 mi NW 12.7 mph - N/A   Clear
9:53 PM 46.9 °F - 39.0 °F 74% 30.29 in 10.0 mi NW 10.4 mph - N/A   Clear
10:53 PM 46.9 °F - 37.0 °F 68% 30.29 in 10.0 mi NW 12.7 mph - N/A   Clear
11:53 PM 46.0 °F 40.2 °F 37.0 °F 71% 30.29 in 10.0 mi NW 12.7 mph - N/A   Clear